Theta_e
337 334 333 332 331 331 332 333 336 338 339 339 340 341 343 345 346 346 345 344 344 345 345 345 345 345 345 345 344 343 344 344 344 344 344 343 343 343 343 343 342 342 342 341 340 338 337 336 336 336 335 335 336 339 342 344 345 345 345 345 346 346 346 346 346 344 340 340 340 340 341 342 342 343 343 344 344 343 341 339 338 337 336 336 334
340 338 336 334 333 332 332 333 334 335 336 336 335 335 338 342 345 347 346 345 344 344 344 344 345 345 346 346 346 345 345 345 345 344 343 343 343 343 343 342 342 342 341 341 341 341 340 338 338 337 336 335 335 336 338 341 343 343 344 344 344 344 344 345 346 344 341 340 340 340 341 342 342 341 341 340 340 339 338 337 337 336 335 334 332
342 342 340 338 336 334 334 333 333 334 334 334 333 333 334 337 340 344 345 346 345 344 344 344 345 345 345 346 347 347 348 347 346 344 343 342 342 343 343 342 342 342 342 341 341 342 342 341 340 339 338 337 336 336 337 339 341 342 342 342 342 341 341 341 343 344 344 342 340 340 342 342 342 342 342 341 341 340 339 337 337 336 335 333 332
343 344 343 342 340 337 336 335 334 333 332 332 332 332 333 334 335 337 340 343 345 344 343 343 345 346 346 347 347 348 348 347 347 346 345 343 342 342 343 343 343 343 343 342 342 343 343 342 343 342 342 340 339 338 338 340 342 343 343 343 343 341 341 339 339 341 343 342 340 339 341 342 342 342 342 342 342 342 339 337 335 334 332 331 331
343 344 344 344 344 341 338 335 335 335 334 333 333 332 333 333 333 334 336 338 341 343 344 344 345 346 346 347 347 348 348 347 347 347 347 346 344 342 342 343 343 343 343 343 343 343 343 343 344 345 344 342 341 341 342 342 344 345 344 344 344 344 344 342 341 340 341 341 338 336 337 339 340 340 341 342 341 340 338 336 335 333 331 330 330
345 345 345 344 345 345 342 339 336 335 335 335 335 335 334 334 334 334 335 336 338 340 343 345 346 347 347 347 348 348 348 348 348 347 347 347 346 343 341 340 342 342 342 343 344 344 344 343 344 344 344 343 342 341 342 343 343 343 343 343 344 344 344 344 344 343 342 341 339 337 335 337 338 338 339 340 339 338 336 334 333 333 333 331 330
344 346 347 346 346 347 347 346 343 340 337 334 334 335 335 335 335 334 334 335 335 337 339 343 346 348 349 349 348 348 348 348 348 347 347 347 347 345 343 340 340 341 341 342 343 344 344 344 343 342 343 343 343 343 342 343 342 342 343 343 343 344 344 344 345 345 345 344 344 342 341 341 342 341 341 342 341 341 341 338 335 333 333 332 332
342 342 345 346 345 346 347 349 349 347 343 340 336 335 335 335 335 333 332 333 333 333 333 338 344 347 348 349 349 348 348 348 348 348 347 347 347 347 346 344 342 341 341 341 341 342 342 342 342 342 342 342 343 343 343 343 342 342 342 343 343 344 345 346 347 347 348 348 347 347 347 347 346 345 345 346 345 345 346 344 342 340 337 334 333
343 341 342 344 345 346 347 348 350 350 349 348 345 342 339 336 334 333 335 337 338 336 334 335 339 343 345 347 348 348 347 347 347 347 347 347 347 347 347 347 346 345 343 342 341 340 340 340 340 340 340 341 341 342 341 342 341 340 340 342 343 346 347 348 349 349 349 349 349 348 348 347 346 346 345 345 346 345 346 346 345 344 342 338 334
348 346 345 346 347 348 349 349 350 350 350 350 350 348 344 339 337 339 342 345 345 343 339 337 338 340 343 345 347 347 347 346 346 346 346 346 346 347 347 348 347 347 347 346 344 343 341 341 340 340 340 339 338 339 339 340 340 340 340 341 343 346 347 348 348 348 348 348 347 347 346 345 345 345 344 344 344 344 344 344 344 342 342 340 334
350 349 348 349 348 348 350 351 351 351 352 351 352 351 348 344 343 346 349 350 349 348 345 341 339 339 341 343 345 346 346 347 347 346 346 346 346 347 347 347 347 347 347 347 347 346 345 345 344 344 342 340 338 337 336 337 337 338 339 341 344 345 347 347 346 347 347 347 347 346 346 345 344 343 343 342 341 341 339 339 339 338 339 338 335
348 347 347 347 347 348 350 352 352 352 353 353 353 353 351 348 348 349 351 351 352 352 351 347 342 340 341 342 343 344 344 345 346 347 347 347 347 347 347 346 347 347 347 347 346 346 346 346 345 345 345 344 343 341 338 336 336 337 337 338 340 343 345 346 346 346 346 346 345 345 345 345 344 343 342 340 338 337 336 336 337 338 338 339 339
348 349 349 348 349 350 350 351 352 352 352 352 352 352 351 350 350 350 351 352 353 354 354 352 349 346 346 346 346 345 345 345 346 346 346 346 347 347 347 346 346 345 345 345 345 346 346 346 346 346 346 346 346 345 344 342 341 340 339 338 337 338 339 341 341 341 342 342 342 342 342 342 342 341 339 338 337 337 338 339 341 342 342 342 342
349 349 349 349 350 349 349 350 350 350 350 350 351 351 351 351 352 352 352 352 353 355 355 353 352 350 349 348 347 347 347 346 346 346 345 345 346 347 347 347 347 345 344 343 343 344 345 346 346 346 346 347 347 347 347 347 346 345 344 343 341 340 340 339 339 339 339 339 339 339 339 339 339 339 338 339 341 341 342 343 343 344 344 344 343
347 347 348 348 348 349 349 349 349 349 350 350 350 350 351 351 352 352 352 352 352 353 352 352 351 350 349 348 348 348 348 347 347 346 345 345 346 347 347 348 348 347 346 344 344 343 344 345 346 346 347 347 347 347 347 348 348 348 347 346 345 345 345 344 344 343 342 342 341 340 340 340 340 341 341 341 342 342 343 344 344 345 345 344 344
342 342 342 342 344 345 346 346 347 347 347 348 349 349 350 350 350 350 350 350 350 350 350 350 350 350 349 349 348 348 348 348 346 346 345 345 345 346 347 347 347 347 346 345 345 344 344 344 345 346 347 347 347 348 348 348 348 348 348 347 347 347 346 346 346 346 346 346 345 345 344 344 344 344 344 343 343 343 345 346 347 348 348 348 347
337 337 338 339 339 342 342 342 343 344 343 344 346 346 347 347 347 348 348 348 349 349 349 349 349 350 350 350 350 350 349 349 348 346 345 344 345 345 345 345 345 345 345 345 344 344 344 344 344 345 346 346 347 347 348 348 348 348 348 348 348 348 347 347 347 348 348 348 348 348 347 347 347 347 347 347 347 347 348 349 349 350 350 351 350
334 335 337 338 338 339 340 340 340 340 340 340 341 342 343 343 344 344 345 345 347 347 347 347 347 348 349 349 350 350 350 349 349 347 346 346 346 346 345 345 344 344 345 345 346 346 347 346 345 345 345 346 346 347 347 347 348 348 348 348 348 348 347 348 348 348 348 349 348 348 349 349 349 349 349 349 349 349 350 350 350 351 352 352 352
333 334 335 336 337 338 339 338 338 337 337 338 338 338 338 340 340 341 341 342 343 344 344 344 343 345 346 346 347 348 349 350 349 349 349 348 348 349 348 348 347 347 346 347 348 349 350 349 349 348 347 347 347 347 348 348 348 348 348 349 349 349 349 350 350 350 350 350 350 350 349 349 349 350 350 350 350 351 351 352 352 353 353 354 354
330 331 331 330 329 330 331 332 333 333 334 336 336 335 335 338 340 341 341 340 340 339 340 340 341 342 342 343 344 344 346 347 348 348 349 349 350 350 350 350 350 349 348 348 349 349 350 351 350 350 350 350 350 350 350 350 350 350 350 351 351 351 351 351 351 352 352 351 351 351 350 350 350 350 351 351 351 352 352 353 353 353 354 354 354
325 327 328 327 325 325 326 329 330 331 332 335 336 335 335 338 340 340 339 337 337 338 337 338 339 339 339 340 340 340 341 343 344 345 346 348 349 349 349 350 350 350 350 350 350 350 350 350 350 350 351 351 351 351 351 351 352 351 351 352 351 351 351 351 351 352 352 352 352 352 351 351 351 351 351 352 351 352 352 353 353 353 353 353 353
322 322 324 327 329 329 329 330 330 330 330 333 334 334 334 335 337 337 337 336 335 333 331 330 331 332 332 333 334 334 335 337 340 341 343 344 345 346 346 347 347 348 349 349 350 351 351 351 351 351 351 351 351 351 351 351 351 351 351 351 351 351 351 351 351 351 352 352 352 352 352 352 352 352 352 351 351 351 352 352 352 352 352 351 351
323 322 322 325 328 330 330 329 329 328 329 329 330 330 330 330 332 332 333 332 329 324 321 322 323 324 325 326 327 328 330 331 332 334 335 337 338 340 341 342 343 344 345 346 347 348 348 349 350 350 350 350 350 350 350 350 350 350 351 351 351 351 352 352 352 352 352 352 351 352 352 352 351 351 351 351 351 351 352 352 352 351 349 348 347
322 323 322 322 324 326 328 328 328 328 328 328 328 328 327 327 326 325 324 322 319 316 316 318 320 320 321 323 324 325 326 327 327 327 329 330 332 334 335 336 337 338 339 340 341 342 343 343 344 345 347 347 348 349 349 349 349 350 350 350 349 350 351 353 353 353 353 353 352 352 352 352 352 352 352 352 352 352 352 352 351 349 347 346 346
321 323 323 322 321 321 323 325 325 326 325 325 325 325 325 324 323 321 319 317 316 314 315 316 316 317 318 320 322 324 325 325 326 327 328 329 329 330 330 331 331 332 332 333 334 334 334 335 337 339 341 342 344 346 347 348 348 348 349 349 349 349 350 352 353 353 353 353 353 353 353 353 353 353 352 352 352 352 352 352 351 349 347 346 346
321 324 324 324 323 322 321 321 321 321 320 319 319 320 320 319 318 317 316 315 315 314 314 314 314 314 314 316 320 323 324 326 326 327 327 327 327 326 326 326 326 327 327 327 328 328 329 329 330 331 332 334 336 338 340 342 343 344 344 345 345 347 348 349 350 351 352 352 352 352 352 352 352 352 353 353 352 352 352 352 351 350 348 347 346
318 322 324 325 324 324 322 321 321 320 320 319 319 318 318 317 317 316 315 315 314 314 314 313 313 313 313 314 316 320 323 324 325 325 325 325 324 324 323 323 323 323 323 324 324 325 325 325 325 326 327 328 330 331 333 335 336 337 338 338 339 340 341 342 344 346 348 349 349 349 349 349 349 349 350 351 352 352 352 352 351 350 349 348 347
315 317 321 323 324 324 324 323 323 322 322 321 321 320 319 319 318 317 317 316 315 315 314 314 314 313 313 312 314 317 319 321 322 322 322 322 322 322 322 322 322 322 321 322 322 322 323 323 323 323 324 325 326 328 329 329 330 331 332 333 334 334 335 336 339 342 344 345 346 347 347 347 347 346 347 348 349 350 350 350 350 350 349 348 348
318 318 320 322 323 324 324 324 323 323 322 322 322 321 320 320 319 319 318 317 317 316 316 316 315 314 313 313 314 316 317 318 319 320 321 321 321 321 321 321 321 321 321 321 321 321 321 321 321 321 322 322 323 324 325 326 327 329 330 332 333 334 335 336 337 339 340 341 343 344 345 345 346 345 345 345 346 346 347 347 347 348 348 348 347
320 321 322 322 323 323 323 323 323 323 323 322 322 322 321 320 320 319 319 318 317 317 317 316 316 315 314 315 317 317 318 318 320 321 322 323 322 321 321 321 321 321 321 320 320 320 320 320 320 320 320 320 321 322 322 323 324 325 327 329 331 333 336 338 339 339 340 340 341 342 342 343 343 344 344 344 344 344 344 344 344 345 345 346 347
320 321 322 323 323 323 323 323 323 323 323 322 322 321 321 320 320 319 319 318 317 317 316 315 315 315 315 316 317 318 319 320 320 321 322 322 321 321 321 320 320 319 319 318 318 318 318 318 318 318 318 318 318 319 320 320 321 321 322 324 327 329 332 335 338 339 339 340 341 341 341 341 342 342 343 343 344 344 344 344 345 345 345 346 346
319 319 320 321 321 321 322 322 322 321 321 321 321 321 320 320 319 318 318 317 317 317 316 315 314 314 314 315 316 317 318 319 319 319 319 319 319 320 320 319 318 317 316 315 314 314 315 315 315 316 316 316 316 317 317 318 319 320 320 321 324 325 327 330 334 336 338 339 340 341 341 342 343 343 343 343 343 344 345 346 346 347 347 347 347
318 318 318 319 319 319 320 320 320 320 320 320 320 319 319 318 318 317 317 317 317 316 316 314 313 313 313 314 314 315 316 316 316 316 316 316 317 318 318 317 316 315 314 313 313 313 313 312 313 313 313 314 314 314 315 316 317 318 318 319 320 322 323 326 330 333 336 337 338 340 341 341 341 341 341 342 343 343 345 346 346 347 348 348 348
315 316 317 317 317 317 317 318 318 319 318 318 318 318 317 317 317 316 317 317 316 315 314 313 313 313 313 313 313 314 314 314 314 314 314 314 315 315 315 315 315 314 313 313 312 312 312 312 312 312 312 312 312 312 313 314 314 315 316 317 318 319 320 322 324 326 329 330 332 335 337 337 338 339 340 341 342 342 342 342 344 345 346 346 346
312 313 314 314 314 315 315 316 316 317 317 317 317 317 317 317 316 316 316 315 315 314 313 312 312 312 312 313 313 313 313 313 313 313 313 313 313 313 313 313 313 313 313 312 312 312 312 312 312 312 311 312 312 312 312 313 313 314 314 315 316 317 318 319 320 321 322 323 324 326 328 329 331 332 333 333 334 335 335 336 338 341 342 342 342
311 311 311 312 312 312 312 313 313 314 314 315 316 316 316 315 314 314 313 313 312 312 312 312 312 312 312 313 313 313 313 312 312 312 312 312 312 313 312 312 312 312 312 311 311 311 311 311 311 311 311 311 311 312 312 312 312 313 313 314 314 315 316 317 317 318 319 320 321 322 322 323 324 325 325 325 326 326 327 328 330 332 334 335 337
309 310 310 311 311 310 310 311 312 313 313 314 315 314 314 313 312 311 311 310 310 310 310 310 311 311 311 311 311 311 311 311 311 311 311 311 312 312 312 311 311 311 311 310 310 310 310 310 310 310 310 310 311 311 312 312 312 312 312 313 313 314 314 315 315 316 317 318 319 319 320 321 321 322 322 323 323 324 324 324 325 325 326 327 329
306 307 308 309 309 309 310 310 311 312 312 312 311 311 310 309 309 309 309 309 309 309 309 309 309 309 309 309 309 310 309 309 309 309 309 310 310 311 310 310 310 310 309 309 309 309 309 309 309 309 309 309 309 310 310 311 311 312 312 312 312 313 313 313 314 314 315 316 316 317 318 319 320 320 321 321 322 323 323 323 323 323 324 324 325
303 304 305 306 306 307 307 308 308 308 308 308 307 307 307 307 308 308 308 307 307 307 307 307 307 307 307 307 307 308 308 308 308 309 309 309 309 309 309 308 308 308 307 307 307 307 307 307 307 307 307 307 308 308 309 309 310 310 311 311 312 312 313 313 313 314 314 315 315 316 316 317 318 318 319 319 320 321 322 323 323 323 323 323 324
301 301 302 302 303 303 304 304 304 304 304 304 305 305 305 307 307 307 306 306 306 306 306 306 306 306 306 306 306 306 306 306 308 308 308 308 308 308 307 307 306 306 306 306 306 306 306 306 306 306 306 307 307 307 307 307 308 309 309 310 311 311 312 312 313 313 313 314 314 315 315 316 316 316 317 318 318 319 320 321 322 323 323 323 323
300 300 300 300 300 301 301 301 301 301 301 302 303 303 305 306 306 305 305 305 305 305 305 304 304 304 304 304 304 305 304 305 306 307 307 307 307 307 307 306 305 305 305 305 305 305 305 305 305 305 306 306 306 306 306 306 307 307 308 309 309 310 310 311 311 312 313 313 314 314 314 315 315 316 316 317 317 318 318 319 320 321 321 322 322
299 299 299 300 300 300 300 300 300 300 300 301 302 303 305 305 304 304 303 303 303 303 303 303 303 303 303 303 303 303 303 303 304 304 305 305 305 305 305 305 304 304 304 304 304 304 304 304 304 304 304 304 305 305 305 306 306 307 307 308 308 308 309 309 310 311 311 312 312 313 313 313 314 315 315 316 316 317 317 318 318 319 320 320 321
299 299 300 300 300 300 300 300 300 300 300 300 301 303 303 303 302 302 302 302 302 302 302 302 301 302 302 302 302 302 303 303 303 303 303 303 303 302 303 303 303 302 302 303 303 303 303 304 304 304 304 303 304 305 305 305 306 306 307 307 308 308 308 308 309 309 309 310 311 311 311 312 313 313 314 315 315 316 316 317 317 318 318 319 319
299 299 299 299 299 300 300 300 300 300 300 300 300 301 301 301 301 300 300 300 300 300 300 300 300 300 300 300 300 300 302 303 303 302 302 302 301 301 300 300 301 301 301 301 301 302 302 302 303 303 303 303 304 304 304 304 305 305 306 307 307 307 307 308 308 308 309 309 309 310 310 311 311 312 313 313 314 314 315 316 317 317 318 318 318
299 299 299 299 299 299 300 299 299 299 299 299 300 300 300 300 299 299 298 298 299 299 299 298 298 298 299 299 299 299 300 301 301 301 301 301 301 300 300 300 300 300 300 300 300 300 300 301 301 302 302 302 303 304 304 304 304 305 305 306 306 307 307 307 308 308 308 309 309 309 310 310 311 311 312 312 313 314 314 315 316 316 317 317 318
299 299 299 299 299 299 299 299 299 299 299 299 299 299 299 299 298 298 298 298 298 298 298 298 298 298 298 298 298 298 299 299 299 299 300 301 301 300 300 300 300 299 299 299 299 299 299 300 300 300 300 301 302 303 303 303 304 304 305 305 305 306 306 307 307 308 308 309 309 309 310 310 310 311 311 312 313 314 314 314 315 315 316 316 316
298 298 298 298 299 299 299 298 298 298 298 298 298 298 298 298 298 298 297 297 297 297 298 297 297 297 297 297 297 297 298 299 299 300 301 301 301 300 300 299 299 298 298 298 299 299 299 299 299 300 300 300 301 301 301 302 302 303 304 304 305 305 305 306 307 307 308 308 309 309 309 310 310 311 311 312 312 313 313 314 314 314 314 314 314
298 298 298 298 298 298 298 298 298 298 298 298 298 297 297 297 297 297 297 297 297 297 297 297 296 296 296 296 297 297 298 299 299 299 300 299 299 299 299 298 298 298 298 298 298 298 298 298 299 299 300 300 300 300 300 300 300 301 302 303 303 304 305 305 306 306 307 307 308 308 309 310 310 310 310 311 311 311 311 312 312 313 312 312 312
298 298 298 298 298 297 297 297 297 297 297 297 297 297 297 297 296 296 296 296 296 296 296 296 296 296 296 296 296 297 297 298 298 299 299 299 298 298 298 297 297 297 298 298 298 298 298 298 298 298 299 299 299 299 298 299 299 300 301 301 302 303 303 304 304 305 305 305 306 307 307 308 308 308 309 309 309 309 309 309 310 311 311 311 311
298 298 298 298 298 297 297 297 297 297 297 297 297 297 296 296 296 296 296 296 296 296 296 296 296 296 296 296 296 296 296 297 297 298 298 298 298 297 296 296 296 296 297 297 297 297 297 298 298 298 298 298 298 298 298 298 299 299 300 301 301 302 303 303 303 303 302 302 303 304 304 304 305 305 306 307 307 307 307 308 309 310 310 310 310
299 298 298 298 298 297 297 297 297 297 297 297 296 296 296 296 296 296 296 296 296 296 296 296 295 295 295 295 295 295 295 296 296 297 297 296 296 295 295 295 296 296 296 296 296 297 297 297 297 297 298 297 297 298 298 298 299 299 300 300 300 301 301 301 301 300 299 299 299 299 299 299 300 301 303 304 305 306 307 308 309 309 309 309 309
Wind_Speed
18 18 18 18 19 20 21 20 19 18 17 16 15 14 13 13 12 11 11 11 10 10 10 10 10 9 9 9 9 9 9 9 10 10 11 11 11 11 11 11 11 11 11 11 12 12 13 13 13 13 14 15 15 15 15 15 15 14 14 13 13 13 14 16 18 21 20 18 17 15 14 14 14 14 15 17 17 18 19 20 20 21 22 22 20
17 17 18 19 19 19 19 20 20 19 18 17 16 15 14 13 13 12 12 12 12 12 11 11 11 11 10 10 10 10 10 10 10 11 11 11 11 11 11 12 12 11 11 11 10 11 12 12 12 12 13 14 14 14 15 15 16 16 15 15 15 14 15 16 18 21 21 18 16 15 13 14 15 15 15 17 18 19 20 19 19 19 20 20 20
19 17 17 17 18 18 19 19 20 20 19 18 17 15 14 14 14 14 13 12 12 12 12 12 11 11 11 11 10 11 11 11 11 12 12 12 11 11 11 12 12 12 11 10 9 10 11 12 11 10 11 12 13 13 14 15 15 15 15 15 15 15 16 17 18 19 21 20 18 16 15 15 16 16 16 17 18 19 18 17 17 17 17 18 18
21 19 17 16 17 18 19 19 20 20 20 19 18 17 16 15 15 15 14 13 13 13 12 12 12 12 13 12 11 11 12 12 12 12 12 12 13 12 12 12 12 12 12 11 10 10 11 11 11 10 11 12 12 12 12 13 13 14 14 13 13 14 14 16 17 18 21 22 20 19 18 19 18 18 18 18 19 19 18 18 17 17 16 16 17
24 23 20 17 16 17 18 20 21 21 21 21 20 19 18 17 17 16 16 15 15 14 13 13 13 13 14 13 12 11 11 11 12 12 12 13 13 14 14 14 13 13 12 12 11 12 12 12 11 11 12 13 12 11 11 12 13 13 13 13 13 14 15 15 16 17 20 22 22 21 20 21 20 19 19 20 21 20 19 19 18 17 15 14 14
26 24 23 21 19 17 18 19 20 21 21 21 21 21 20 20 19 18 18 17 17 16 16 14 14 14 13 13 12 11 10 10 11 11 12 12 13 14 15 15 15 14 13 12 12 12 12 12 12 12 13 13 12 12 11 12 12 13 13 14 14 15 15 15 15 17 18 20 21 21 20 20 20 19 18 20 21 21 19 18 16 15 15 15 14
26 24 24 23 21 20 18 18 18 19 20 21 21 22 22 22 21 20 19 19 18 18 18 17 15 14 14 13 13 12 11 11 11 10 11 11 11 12 13 15 16 16 15 13 12 12 12 13 13 13 13 13 13 12 12 12 12 13 13 13 13 14 14 13 13 15 16 17 18 19 18 18 19 18 17 18 19 20 20 19 17 15 15 16 16
28 26 25 24 23 22 21 20 19 19 19 20 21 22 22 22 22 21 20 19 19 19 19 19 17 16 15 14 14 14 14 13 13 11 11 11 11 12 12 13 14 15 16 15 14 13 12 13 13 13 13 13 13 13 12 12 12 13 13 12 13 13 12 11 11 12 13 15 16 16 17 18 18 17 18 18 19 19 20 20 19 18 17 17 18
31 30 28 27 26 25 24 22 21 20 20 20 20 20 20 20 21 21 20 19 19 19 20 20 19 18 16 15 15 15 16 15 14 13 13 13 13 13 14 14 14 14 15 15 14 14 14 14 14 14 14 14 14 14 13 13 13 14 13 12 12 12 11 11 11 12 13 15 16 17 18 19 18 18 19 19 19 20 20 21 21 21 21 21 20
31 30 28 28 27 25 24 23 23 22 21 20 20 20 20 19 20 20 19 19 18 18 19 20 20 19 18 17 16 16 17 16 16 15 15 15 15 15 16 17 17 17 17 16 15 14 14 14 14 15 15 15 15 15 14 13 13 13 12 12 11 12 12 13 13 14 15 17 17 17 19 20 19 19 20 20 20 21 21 22 23 23 23 25 24
27 26 26 26 26 24 22 22 23 23 22 22 21 20 20 20 20 20 19 18 18 18 19 19 19 19 19 18 18 18 18 17 17 17 17 17 18 18 18 18 19 19 20 19 18 17 16 15 15 15 15 15 15 15 15 15 14 13 13 12 12 13 14 15 15 15 16 18 18 18 20 21 20 19 20 20 21 22 22 23 23 23 24 26 26
25 24 24 25 25 24 22 21 22 22 23 23 22 21 20 20 21 21 21 21 20 20 20 19 19 19 19 19 19 19 18 18 19 20 20 20 20 21 21 20 20 20 20 20 19 18 17 16 16 15 14 14 14 15 15 15 14 14 14 14 14 15 16 17 17 18 18 20 21 21 21 22 22 22 21 22 22 22 23 23 23 24 24 25 27
19 19 18 19 20 20 19 19 18 19 19 20 21 21 21 21 21 22 23 24 23 22 21 21 20 20 19 19 20 20 20 20 20 21 21 22 22 22 22 22 22 22 21 21 20 19 19 18 17 16 15 15 15 15 15 14 14 14 14 14 15 16 17 18 19 19 20 21 23 23 22 22 24 24 22 22 23 23 23 24 24 25 26 27 28
15 16 16 15 14 13 12 12 13 13 14 16 17 19 20 20 20 21 22 23 24 24 23 22 22 21 21 21 21 21 21 22 22 22 22 22 23 23 23 23 23 23 22 22 22 22 21 20 19 18 17 16 16 16 16 16 16 16 15 16 16 16 16 17 18 19 20 21 23 24 23 22 23 24 22 22 24 25 25 26 27 28 29 29 30
13 13 14 14 13 12 10 8 9 9 10 11 13 16 18 20 20 21 21 22 23 24 23 22 22 22 22 23 22 22 22 23 24 23 23 23 24 24 25 25 25 25 24 24 23 23 22 22 22 20 19 17 17 16 17 18 18 19 19 18 18 17 17 17 17 18 19 20 22 23 23 22 23 24 24 24 25 25 25 27 27 28 30 31 31
12 12 11 11 11 11 10 8 8 7 7 8 9 10 12 14 16 17 18 18 19 20 20 20 20 20 22 23 23 23 24 25 26 25 25 24 24 25 26 26 26 26 26 26 25 25 24 23 24 23 22 21 19 19 20 20 21 21 21 21 21 21 20 19 19 19 20 21 23 24 24 24 24 25 25 25 26 26 27 29 29 30 32 34 35
13 13 11 10 9 8 7 6 6 6 5 5 6 6 6 7 9 11 11 12 12 12 13 14 15 16 17 19 22 24 26 27 27 27 26 25 25 26 27 27 27 27 26 26 26 26 25 25 26 26 26 24 23 23 23 23 24 24 24 24 25 25 24 23 23 23 24 24 26 26 27 27 27 27 27 27 28 29 30 32 33 32 34 36 37
15 14 12 10 9 9 8 6 4 3 3 4 4 3 2 1 2 4 6 7 8 9 10 10 10 10 11 13 16 20 22 24 25 25 24 23 24 25 27 27 27 27 27 26 26 26 26 26 26 27 28 28 27 27 27 27 27 27 27 28 28 28 28 28 28 28 28 29 29 29 29 29 29 29 29 29 29 30 31 33 33 33 34 35 36
13 13 14 13 11 11 10 8 6 6 5 5 4 4 3 3 1 2 3 4 5 6 7 8 9 9 9 8 10 13 15 16 17 18 18 19 20 23 25 26 26 27 27 26 26 25 25 25 25 26 27 28 28 29 29 29 29 29 30 30 31 32 32 32 32 33 32 32 32 32 31 31 31 31 31 30 30 30 31 31 30 30 32 33 33
11 10 10 11 10 9 8 8 7 7 7 6 5 5 4 4 3 1 2 3 2 2 3 5 7 8 8 8 8 10 12 13 13 13 13 14 16 18 21 22 23 24 25 25 25 25 26 26 26 26 27 27 28 29 29 29 30 30 31 32 33 34 34 34 35 34 34 34 33 32 32 31 30 31 30 30 29 29 29 29 28 27 29 30 31
10 8 8 8 8 7 7 6 6 7 8 7 6 6 5 4 3 3 3 4 4 4 4 4 5 5 7 8 9 11 12 13 14 13 12 12 13 15 18 20 21 22 22 23 24 24 25 26 27 28 28 28 29 29 29 29 30 30 31 31 32 33 33 34 34 33 33 32 32 32 31 31 31 30 30 30 29 28 28 28 27 27 28 29 30
9 8 8 9 10 9 9 8 8 8 8 6 5 5 5 3 2 2 3 5 5 4 5 5 4 2 4 4 6 8 8 8 9 11 10 10 11 13 15 16 18 19 20 21 21 22 23 24 25 26 27 28 29 29 29 29 29 29 29 29 29 30 31 32 33 32 32 31 31 31 31 30 30 30 29 28 27 27 27 27 27 28 28 28 29
8 7 8 9 10 10 9 9 8 7 7 5 4 5 4 3 2 2 3 4 3 2 2 3 3 2 1 1 2 4 4 4 5 6 8 9 10 11 12 13 14 15 16 17 18 19 20 21 22 23 23 25 26 26 26 26 25 25 24 24 25 26 27 28 30 31 31 31 31 31 30 29 29 28 27 27 26 26 27 27 27 27 27 27 28
6 6 6 7 8 8 8 7 6 5 5 4 3 3 3 2 2 2 3 2 2 1 1 2 3 4 4 3 3 3 3 3 3 4 6 7 9 10 11 11 12 12 13 14 15 16 17 18 18 19 20 21 21 22 22 22 23 23 24 24 25 24 24 26 28 29 30 30 30 31 30 29 28 28 28 27 27 27 27 26 25 24 24 25 26
5 5 5 6 5 5 5 5 4 3 2 1 1 1 1 1 0 1 1 1 1 2 3 3 3 2 2 2 2 1 1 2 2 3 4 5 6 7 8 9 9 10 10 11 12 13 13 14 14 15 15 16 17 18 19 20 21 22 23 24 24 24 24 25 27 28 28 28 28 29 30 29 28 27 27 27 27 26 25 23 23 22 22 23 25
6 6 5 5 5 4 3 3 2 1 0 1 1 1 2 2 2 2 2 1 1 2 2 3 3 2 1 0 0 0 1 1 2 3 4 5 6 6 7 8 8 9 9 9 9 9 9 10 10 11 11 11 12 14 15 16 16 17 17 18 19 21 22 23 24 26 26 26 26 27 27 27 27 26 26 25 25 24 23 22 23 23 23 24 27
7 7 7 6 5 4 3 2 1 1 1 2 2 2 3 3 3 3 2 2 1 0 0 1 2 2 2 2 2 1 2 2 3 4 5 6 7 8 9 9 9 9 9 9 8 8 9 9 10 10 10 10 10 11 11 12 13 13 13 14 15 17 18 19 19 21 23 23 24 24 25 25 25 25 25 25 25 24 23 23 24 25 25 26 29
6 6 7 7 7 6 5 4 3 2 1 1 2 3 4 4 5 5 5 4 3 4 4 4 3 1 2 3 4 4 4 5 6 7 7 8 9 11 12 12 12 12 12 11 11 11 11 11 11 10 10 10 10 10 11 11 11 12 12 13 14 14 15 16 16 16 18 20 21 22 22 22 23 24 24 25 25 24 23 23 25 26 27 27 29
5 6 7 8 8 8 6 5 4 3 2 1 1 3 3 4 5 6 6 6 5 6 7 7 7 6 5 5 5 6 6 7 8 8 10 11 12 14 14 15 15 15 15 15 15 14 14 13 13 12 12 12 12 11 11 12 11 11 11 11 12 12 13 13 14 15 16 18 19 20 21 21 22 22 23 24 25 24 24 24 25 26 27 27 28
6 7 8 9 9 9 8 6 5 4 2 1 1 2 3 3 3 4 5 5 6 7 8 8 8 7 7 7 7 7 7 8 9 10 11 13 14 16 16 17 17 17 18 18 18 17 17 17 16 15 15 14 14 15 15 15 14 13 12 12 11 12 12 12 13 14 15 16 17 18 19 20 22 23 24 25 26 25 25 25 25 25 26 26 27
8 8 9 9 9 8 8 7 6 5 4 2 1 1 1 1 2 3 4 5 7 8 8 8 7 7 6 7 7 8 8 8 9 11 13 14 15 17 18 18 19 20 20 20 20 20 20 20 19 18 17 17 16 16 17 17 17 16 15 14 13 13 13 13 14 15 16 16 17 18 19 20 21 22 23 25 26 26 25 25 24 24 24 24 26
8 8 8 8 8 7 7 7 6 5 5 4 4 3 3 3 3 4 5 6 7 8 8 8 7 7 7 7 8 8 9 10 11 13 14 15 16 17 18 20 21 22 23 23 23 22 22 21 21 21 20 19 18 18 17 17 17 18 17 17 16 16 16 15 16 16 17 18 18 19 20 21 21 21 22 23 25 25 23 21 20 21 22 23 25
9 9 9 8 8 8 8 8 7 7 6 6 6 6 6 6 6 6 7 7 8 8 8 8 7 8 8 9 9 9 10 11 12 13 14 15 16 17 18 20 21 23 24 24 23 22 21 21 20 20 20 21 20 20 19 19 19 19 19 18 18 18 18 18 18 19 20 20 21 21 22 22 23 24 24 25 25 24 22 20 19 18 19 21 22
10 10 9 8 8 8 8 8 8 8 8 8 8 8 8 8 9 9 9 10 11 10 10 9 9 8 8 9 10 11 11 12 13 13 13 14 15 16 17 18 19 21 21 22 21 20 20 20 19 19 19 19 20 21 21 21 21 20 20 20 19 19 19 19 20 21 22 22 23 24 24 25 26 27 27 27 27 27 26 24 22 22 22 23 25
8 8 8 8 8 8 8 8 8 8 9 9 10 10 10 10 11 11 12 13 13 12 12 11 11 10 10 10 11 12 12 13 13 14 14 14 15 16 17 17 18 19 19 19 19 19 20 20 20 20 19 19 19 20 21 21 22 22 22 22 22 22 22 22 21 22 22 23 23 24 25 26 28 29 30 30 30 30 29 27 26 26 26 27 29
7 7 7 8 8 9 9 9 9 9 10 10 11 11 12 12 12 12 12 12 12 12 11 11 11 11 11 12 12 13 13 13 14 14 15 15 16 17 18 19 19 19 19 19 19 19 20 21 22 22 21 20 19 19 20 21 22 23 24 24 24 25 25 24 24 24 24 24 24 25 25 27 28 29 29 30 31 31 31 30 29 29 29 30 30
5 6 7 7 8 8 8 9 10 10 10 11 12 12 12 12 12 12 11 11 11 10 11 11 11 11 11 12 13 14 14 14 14 14 13 13 14 16 17 18 19 20 21 21 22 22 22 22 23 23 23 22 21 21 20 21 21 22 23 24 25 26 27 27 27 27 27 26 26 26 26 28 28 29 29 30 31 32 32 32 32 32 32 32 32
5 6 6 7 8 8 8 9 10 10 11 11 12 11 11 11 10 10 10 9 9 10 10 11 11 11 11 12 13 14 14 15 15 14 12 12 13 14 16 17 19 20 21 22 24 24 25 24 24 24 24 23 23 23 23 22 22 23 23 24 25 26 27 27 28 28 29 29 28 28 28 28 29 29 30 31 32 33 33 34 34 34 33 33 32
4 4 5 6 6 7 8 9 9 9 10 10 10 10 9 8 7 8 9 9 9 9 10 10 11 12 12 12 13 14 15 15 14 13 12 12 13 14 16 17 19 21 22 22 23 24 24 24 23 23 23 24 24 24 24 25 24 24 25 25 25 25 26 26 27 28 28 29 30 30 30 31 31 30 31 31 32 33 33 34 34 35 35 35 34
1 2 3 3 4 5 6 7 7 8 8 8 8 8 7 5 5 7 9 9 9 10 11 11 12 13 13 13 14 14 14 13 11 11 11 11 12 13 14 16 19 20 21 21 22 22 23 23 23 23 23 24 25 25 25 25 25 26 26 26 26 26 26 26 27 27 28 28 29 30 30 31 32 32 32 32 32 32 32 33 33 34 35 36 36
1 1 1 2 2 3 4 4 5 5 5 5 5 5 4 3 4 7 10 11 12 12 12 12 13 13 14 15 14 14 15 13 11 9 10 10 11 11 12 14 17 19 19 19 20 21 22 23 23 23 24 25 26 26 26 25 25 25 26 26 27 27 27 27 27 27 27 28 28 29 29 30 31 32 33 33 32 32 32 32 32 33 34 35 36
3 3 2 3 3 3 4 4 5 5 4 4 4 3 2 3 6 9 12 13 13 12 12 13 14 14 15 15 14 14 15 15 13 11 11 12 12 12 13 14 16 18 18 17 19 20 21 22 22 23 24 25 26 25 25 25 25 25 25 26 27 27 28 28 28 28 28 28 29 29 29 30 30 30 31 32 32 32 32 32 32 32 33 34 35
4 4 4 4 4 5 5 6 6 5 5 4 4 4 4 7 10 11 12 12 12 12 13 16 17 16 15 16 15 13 13 14 15 14 14 15 15 15 15 16 17 18 18 18 19 20 20 21 21 22 23 24 24 23 23 24 25 26 26 26 26 27 28 28 29 29 30 30 30 30 30 30 30 31 31 31 32 33 33 32 32 32 32 32 33
5 5 6 6 6 6 6 6 6 6 6 6 7 7 9 10 12 13 13 14 14 15 16 18 18 17 16 17 17 15 12 12 14 14 15 16 16 17 19 20 21 20 20 20 20 20 20 21 21 21 22 21 21 21 21 23 24 25 26 27 27 28 28 29 29 30 30 31 31 31 31 31 31 32 32 32 32 33 33 33 33 32 32 32 32
6 6 6 7 7 7 7 7 7 7 7 8 9 10 11 12 13 14 15 16 16 16 17 17 18 17 16 17 18 16 14 14 15 16 16 17 17 19 20 20 20 21 21 22 22 22 23 24 24 24 23 21 19 18 19 20 22 23 25 26 28 29 30 31 31 31 31 31 31 31 31 31 31 31 32 32 32 32 33 33 33 33 33 33 33
6 6 7 7 7 7 7 8 8 8 9 9 10 10 11 12 13 14 15 16 16 16 15 16 17 17 16 16 16 16 16 17 17 17 16 17 18 19 20 20 20 22 23 24 24 24 25 26 27 27 26 24 20 18 17 18 20 21 22 24 26 28 29 30 32 32 32 32 33 33 32 32 31 30 30 30 31 32 32 33 33 33 33 33 33
6 7 8 8 8 9 9 9 10 10 11 11 12 12 13 14 15 16 16 17 16 15 15 16 17 18 17 17 17 17 16 16 16 15 15 16 17 18 20 21 23 25 26 26 26 26 27 28 28 28 28 27 23 20 19 19 20 20 21 23 25 27 28 29 30 30 30 31 33 33 34 34 33 31 30 30 30 31 32 33 33 33 33 33 34
6 8 8 9 9 10 10 11 11 12 12 13 13 14 15 15 16 17 17 18 17 17 17 19 19 19 18 18 17 16 15 15 15 16 17 18 20 21 23 25 26 27 27 27 27 27 28 29 29 29 29 28 26 23 22 21 22 22 22 23 24 26 27 28 28 28 28 29 31 32 32 33 33 33 32 31 30 30 31 31 32 32 32 33 34
6 7 8 9 10 11 11 12 12 13 13 14 15 15 16 16 17 17 18 19 19 19 20 21 20 19 17 17 16 15 15 15 16 16 17 18 20 22 25 26 27 27 27 28 27 28 28 29 30 30 29 28 26 24 24 24 24 24 24 24 25 25 26 27 27 27 27 28 29 29 30 31 32 32 32 31 30 30 30 30 30 31 32 33 33
5 7 8 9 10 11 12 12 13 13 14 15 15 16 16 17 17 18 19 20 20 21 21 21 19 18 17 17 17 17 16 15 15 15 16 17 20 23 26 29 29 29 28 28 29 29 29 29 29 29 29 28 26 25 25 25 25 24 24 24 24 25 25 26 25 25 25 27 28 28 28 29 30 30 31 31 30 29 29 28 29 31 32 33 33
5 7 8 9 10 11 12 12 13 14 14 16 16 17 17 17 18 19 19 20 21 22 21 21 19 18 19 19 19 18 16 15 15 16 17 19 23 27 29 30 30 28 28 28 28 28 27 27 26 26 26 26 25 24 24 24 23 23 23 22 22 23 23 23 23 23 23 25 26 26 27 28 28 29 29 28 28 27 27 27 28 30 31 32 33
Wind_Direction
219 218 219 222 224 224 223 223 223 225 226 229 233 233 233 233 230 227 225 227 231 234 236 238 238 237 239 243 246 249 254 258 261 262 263 265 267 268 266 262 258 254 250 248 247 250 252 252 252 253 254 255 254 255 260 265 269 272 275 279 283 288 293 295 297 297 296 297 297 290 281 279 281 281 279 280 281 285 289 293 298 302 305 308 311
221 220 219 221 223 224 225 224 225 227 229 232 234 235 236 238 239 237 235 235 236 237 240 243 245 245 245 247 249 250 255 260 261 262 265 267 268 268 268 267 266 264 258 252 249 251 254 255 255 255 257 258 256 255 258 262 266 271 274 278 281 285 289 291 293 295 296 297 297 293 289 288 290 291 290 290 290 291 292 296 300 302 303 305 308
224 226 226 224 224 226 227 227 227 228 230 234 236 237 237 238 240 242 243 244 244 242 241 242 245 247 248 248 249 252 258 261 261 262 265 268 269 268 267 267 267 269 267 263 258 256 256 257 257 257 258 260 259 258 260 262 265 269 273 277 281 284 286 287 286 288 292 295 297 297 298 297 297 300 301 302 304 304 304 306 308 308 307 306 308
226 228 230 229 228 229 230 230 230 230 231 233 237 239 240 240 240 241 243 246 248 248 246 243 243 245 248 248 249 253 258 258 259 261 265 269 271 270 268 267 266 267 270 270 269 267 265 265 265 262 260 260 261 261 264 267 270 274 276 278 282 287 289 288 285 283 284 288 293 297 299 300 302 305 307 309 311 312 313 315 317 316 312 309 309
229 229 231 233 231 229 230 231 232 233 234 235 237 239 241 242 242 242 243 244 247 250 249 246 244 245 248 249 250 254 256 257 259 263 268 272 273 271 268 266 265 263 264 268 271 273 272 271 271 268 265 263 263 263 265 269 273 276 278 281 286 292 294 292 288 284 282 285 291 295 298 299 301 305 309 310 312 314 316 318 322 323 319 312 308
234 235 234 234 235 232 230 231 233 235 237 238 238 239 239 240 242 243 244 246 248 250 250 249 247 247 248 249 251 254 257 261 264 268 274 276 277 275 270 266 265 263 261 263 267 272 273 273 272 271 270 270 270 270 271 273 275 277 280 284 288 291 292 292 291 289 288 290 293 298 302 305 307 311 314 316 317 320 323 322 322 326 325 317 309
236 242 243 241 240 238 235 235 235 235 236 237 238 239 240 240 241 243 245 248 249 249 250 248 246 247 250 250 253 256 258 261 265 270 274 277 280 281 277 272 267 264 264 263 265 269 272 273 273 272 272 273 275 276 278 280 282 283 285 288 289 289 290 291 291 291 293 296 300 305 310 313 315 319 323 325 326 329 333 330 326 328 327 321 317
231 235 239 240 243 245 241 238 236 235 234 234 234 237 239 241 241 242 244 245 246 246 245 243 241 242 246 250 253 256 257 259 261 265 268 273 278 282 285 283 277 272 269 268 269 270 272 273 274 274 274 274 275 276 277 280 282 283 285 286 286 284 284 287 290 293 297 300 304 308 311 312 314 317 320 323 326 329 333 333 331 331 327 321 321
232 230 229 231 239 246 244 240 238 236 236 235 233 235 237 239 238 238 238 239 242 244 244 242 241 240 241 246 250 253 255 257 259 262 265 268 273 278 282 285 285 283 280 277 277 276 276 277 277 278 279 278 278 277 276 277 280 281 284 283 277 274 275 279 285 292 298 300 303 306 307 307 309 314 315 317 322 324 326 327 327 327 325 319 318
227 226 226 229 237 244 244 242 240 240 241 241 238 236 236 235 233 233 234 237 241 244 244 243 244 245 244 245 248 252 255 258 260 264 266 268 271 276 279 281 284 286 286 286 285 283 283 284 284 285 285 282 280 279 279 279 279 280 283 281 273 267 268 273 279 287 295 298 301 305 305 304 306 312 312 314 319 321 321 322 321 321 322 319 316
222 221 224 229 236 244 246 243 241 243 246 247 244 240 237 234 233 235 237 239 242 245 245 244 245 248 249 250 250 252 255 259 263 265 267 268 271 274 276 278 279 281 283 285 286 287 289 290 291 292 291 288 285 283 281 279 277 277 276 274 269 266 268 273 277 283 291 295 297 300 301 301 304 308 310 313 317 318 317 318 320 320 321 320 318
228 232 235 238 241 243 242 240 241 244 245 245 244 242 240 236 234 237 239 240 242 245 248 249 247 248 250 252 253 253 254 260 266 269 270 270 271 273 274 274 274 274 275 276 278 281 284 286 289 291 293 294 294 291 287 282 280 279 276 272 267 264 266 271 276 281 287 290 291 292 294 299 302 303 308 312 314 314 314 316 319 320 319 318 318
218 223 228 231 232 232 232 233 234 237 239 239 240 240 239 237 236 236 238 240 243 245 248 250 251 251 251 253 255 255 255 258 262 267 271 272 273 273 273 273 273 272 271 271 271 272 274 277 280 282 286 291 294 295 294 291 289 286 282 277 272 268 267 269 273 277 281 285 286 287 290 296 299 299 305 311 311 311 312 313 314 313 311 312 312
190 194 198 200 201 205 212 218 220 225 227 228 232 233 234 235 235 236 239 241 244 245 246 248 250 252 254 255 257 258 259 261 263 265 268 271 273 273 273 274 274 274 273 273 274 273 273 275 275 276 278 281 284 288 290 292 293 291 287 282 278 276 276 275 275 277 279 281 283 284 287 291 293 295 300 305 305 305 307 306 306 305 304 305 305
166 170 173 172 172 176 178 180 190 204 211 215 223 227 229 232 235 237 241 243 244 246 246 247 248 249 251 254 258 261 262 262 264 266 268 270 273 274 274 274 274 274 274 275 275 275 274 273 273 272 271 271 273 278 283 286 288 287 284 281 279 278 278 277 279 281 282 283 284 285 286 287 289 292 296 299 300 300 302 302 301 301 301 299 299
129 122 120 121 135 154 158 151 155 169 182 193 205 213 219 225 230 234 239 243 247 250 251 250 249 249 250 253 257 260 260 260 261 262 264 267 271 273 274 274 274 275 274 274 274 273 271 269 268 267 267 266 266 269 274 276 276 276 274 273 273 273 272 271 274 277 278 281 282 284 285 286 287 289 292 295 297 299 301 299 299 301 300 299 298
105 105 105 99 102 120 132 134 143 157 170 177 189 206 215 223 230 234 239 242 247 252 255 254 252 251 252 255 258 258 257 257 257 258 260 263 267 271 272 272 272 273 273 273 273 272 271 269 266 265 265 265 265 266 267 267 267 267 268 270 271 271 270 271 272 274 274 276 277 278 280 282 284 286 288 290 293 297 298 297 298 301 300 298 298
95 100 105 106 102 100 104 114 127 142 151 145 143 150 151 175 251 253 249 247 244 245 250 254 256 256 256 258 263 264 260 257 255 256 259 262 266 270 270 270 270 270 271 272 272 271 270 268 267 266 265 266 267 267 267 268 268 270 272 274 275 275 276 278 279 278 276 276 276 277 278 279 281 282 284 285 288 291 292 293 296 299 299 298 300
98 98 100 103 101 96 96 97 91 85 89 94 99 104 102 85 31 313 294 282 265 257 265 277 282 282 278 268 263 263 260 258 257 258 261 264 267 270 271 270 270 269 269 270 270 270 270 269 268 268 267 268 269 269 270 271 273 274 276 277 278 280 282 283 283 282 282 281 281 281 281 281 281 282 283 285 287 288 288 290 293 295 295 297 299
99 102 108 111 110 107 104 97 85 80 82 83 85 94 100 103 102 74 35 29 6 323 296 299 304 305 298 284 272 269 265 263 264 265 266 269 272 274 275 275 274 272 270 269 268 268 268 268 268 269 269 270 271 272 274 275 276 277 278 279 281 283 284 284 284 284 284 284 284 284 283 283 284 285 286 288 290 290 288 288 288 289 290 291 292
105 107 112 114 117 120 120 118 111 104 103 104 104 104 105 115 132 123 92 73 47 17 359 349 338 315 289 276 275 278 276 272 272 275 277 278 278 277 277 278 278 278 277 277 275 273 271 270 269 269 269 269 270 271 273 275 276 276 277 279 281 282 284 284 284 284 284 284 285 285 284 285 285 286 288 290 291 291 290 289 287 287 287 287 287
121 120 119 119 120 119 120 126 129 120 116 122 133 130 124 131 142 102 75 79 69 32 11 18 23 337 296 283 272 273 277 277 277 279 281 282 279 275 273 273 273 274 275 276 277 278 277 276 274 273 272 272 272 272 272 274 275 277 279 280 281 282 283 283 284 284 284 285 285 285 286 286 287 287 288 289 291 292 291 290 290 290 288 287 286
138 134 131 131 130 129 128 131 133 130 129 135 146 146 137 130 110 77 59 65 71 47 22 53 87 104 85 99 223 250 269 278 281 287 293 295 290 284 281 279 277 276 275 276 277 278 280 281 280 279 279 279 279 279 279 280 283 285 286 286 285 287 288 287 286 286 285 285 285 285 287 289 290 291 290 291 292 292 291 293 293 293 291 289 288
160 155 147 140 137 137 139 138 137 138 140 144 155 158 154 144 111 91 84 82 89 113 146 146 145 139 131 142 174 206 243 263 276 289 294 296 293 289 287 287 287 288 289 289 291 291 291 292 292 291 290 290 289 288 287 286 286 287 287 287 288 291 293 293 292 290 288 287 287 287 288 290 291 292 292 292 292 292 293 294 293 291 291 293 294
185 176 166 159 152 148 147 149 152 157 165 188 212 210 201 203 210 31 47 101 162 185 187 191 194 174 149 155 177 195 229 256 269 273 276 281 284 285 285 286 289 294 296 298 301 303 303 304 303 302 300 298 296 294 291 290 288 288 288 289 291 292 292 293 293 292 290 289 289 289 290 291 291 291 291 292 292 292 293 293 288 285 288 292 295
201 193 180 169 166 169 163 150 143 145 150 313 330 342 342 337 338 340 339 328 226 202 199 202 206 211 215 204 171 171 230 249 258 267 274 280 284 286 288 290 293 298 302 305 307 308 306 306 306 305 303 299 294 291 289 288 288 289 289 290 292 293 293 293 293 292 291 290 290 291 292 293 293 292 291 290 290 291 293 291 287 284 285 289 291
209 203 193 179 173 180 185 178 157 114 61 41 36 35 28 18 9 4 0 354 353 21 208 213 212 216 243 279 301 300 278 269 272 278 282 287 292 297 300 303 304 305 307 308 309 310 313 316 316 313 308 300 293 289 286 285 286 287 287 288 289 291 293 295 295 295 294 292 291 291 292 292 292 292 291 290 289 289 290 289 287 286 287 289 291
207 202 197 190 183 180 179 181 183 180 139 67 36 31 32 25 15 12 13 8 1 7 14 8 350 313 280 288 294 292 286 283 283 285 291 298 304 307 309 310 311 312 315 317 320 322 323 323 321 316 308 300 295 292 289 290 291 289 288 288 288 289 289 290 292 293 292 291 290 289 290 290 290 290 289 287 286 287 286 285 285 286 288 289 291
178 179 185 190 191 190 189 190 192 191 181 159 39 30 32 27 20 16 17 10 357 355 2 2 356 347 335 318 306 299 295 295 299 301 304 307 309 310 311 312 314 317 320 321 324 324 323 321 320 317 313 309 306 304 301 300 299 296 294 295 295 294 292 290 288 288 289 291 292 292 293 295 296 295 293 291 289 288 287 286 285 286 288 291 292
168 170 176 182 187 192 196 199 198 192 183 165 36 26 29 29 25 19 14 5 355 348 350 354 352 344 332 321 315 309 305 304 306 308 309 310 309 309 310 310 311 313 315 316 318 318 319 321 323 324 324 322 319 318 316 314 311 307 303 302 303 303 303 301 297 296 298 299 299 299 300 303 304 304 303 301 298 296 295 295 293 292 292 295 296
184 184 187 189 190 196 204 209 212 214 218 225 256 319 349 3 2 356 352 349 348 347 348 349 344 331 318 310 306 303 301 297 294 293 295 298 301 304 306 307 308 307 307 308 311 312 314 317 320 322 325 326 325 324 323 321 319 316 310 304 300 299 301 302 301 301 303 303 303 305 307 308 307 306 305 305 306 307 306 306 306 305 303 302 301
196 195 198 200 203 209 218 225 230 235 238 244 252 258 260 266 290 312 319 324 331 337 340 342 334 320 309 301 294 290 290 289 289 288 288 291 294 298 301 303 304 305 305 307 309 311 313 315 316 317 319 321 323 325 324 323 322 321 318 313 307 300 297 295 294 295 297 299 301 303 304 303 303 304 305 307 310 314 315 314 314 315 313 309 306
195 193 193 196 203 214 225 234 242 248 255 261 265 268 270 273 285 300 309 312 317 321 324 325 320 311 306 303 300 297 296 296 297 298 298 298 298 299 301 302 303 305 306 308 311 314 315 317 318 319 318 318 319 320 321 321 321 320 320 320 317 312 305 298 293 290 290 291 292 293 294 295 298 299 300 301 303 307 310 313 315 316 314 311 308
211 207 203 203 212 222 229 241 251 260 269 275 281 287 292 295 299 305 308 308 308 311 314 315 312 306 300 299 302 304 305 305 307 308 309 307 304 304 305 307 307 307 308 311 314 318 320 321 323 323 322 320 319 317 318 319 319 319 319 318 318 317 313 308 302 297 293 290 288 287 289 291 292 292 292 293 294 295 297 301 305 306 306 306 306
234 232 228 227 231 234 239 246 255 265 275 284 292 297 302 307 310 311 311 309 310 311 312 312 310 309 305 303 303 304 306 307 309 311 314 314 312 310 309 309 308 309 311 314 318 322 325 328 328 328 326 324 322 321 320 319 319 320 319 318 316 315 314 313 311 308 306 302 298 295 293 291 288 288 290 291 292 293 294 294 295 295 297 300 302
233 240 242 241 242 244 249 253 259 269 280 290 298 303 307 310 312 312 312 313 313 313 312 309 307 308 307 306 304 302 302 305 308 312 315 316 316 316 315 315 316 318 319 321 322 324 326 327 328 329 328 326 325 324 323 322 321 320 320 320 318 317 316 315 314 313 312 310 309 307 304 300 297 297 296 295 294 294 295 295 294 292 293 294 295
234 246 255 259 262 265 268 270 274 280 287 293 298 301 303 305 306 307 310 313 314 315 315 312 310 307 304 304 305 304 306 309 312 315 316 314 313 315 318 321 323 325 326 326 325 325 325 326 326 327 327 327 326 325 324 324 322 320 319 319 318 318 318 317 316 315 313 312 311 310 308 307 307 307 305 302 300 299 299 299 297 295 293 293 293
233 244 255 265 274 281 283 282 283 285 288 292 294 296 297 300 303 306 310 314 314 313 314 315 318 320 318 315 312 311 313 315 317 318 316 311 308 310 314 318 321 322 323 324 324 324 326 327 327 327 327 327 327 326 326 325 324 321 319 317 316 316 316 316 315 315 314 313 313 312 310 309 309 310 309 308 307 305 304 303 302 300 297 295 295
234 245 253 262 271 276 277 279 283 286 289 292 294 297 302 306 308 309 312 314 314 312 312 314 317 322 324 322 317 316 318 320 323 325 324 318 313 312 313 314 316 317 319 320 322 324 327 328 327 327 327 327 327 327 326 326 325 323 321 319 317 316 316 315 314 313 312 311 312 312 312 311 310 311 311 310 310 309 308 307 306 305 303 300 298
239 255 263 267 271 272 275 282 288 291 296 299 300 303 309 319 319 310 308 311 315 318 318 319 319 319 319 317 316 317 319 323 328 331 327 323 322 322 319 318 317 317 318 320 321 323 324 325 325 325 326 326 326 326 327 328 327 325 324 322 319 318 317 316 314 312 310 309 309 309 310 310 310 310 310 310 311 311 310 309 308 308 307 305 303
33 16 343 330 322 309 303 303 303 306 309 307 302 306 319 330 314 305 303 306 313 318 320 320 318 315 313 312 313 315 315 316 320 324 323 324 327 327 324 320 317 316 317 319 320 320 320 321 322 323 323 323 324 325 327 328 328 327 325 324 322 320 319 318 317 314 312 310 309 308 308 309 309 309 309 310 312 312 312 312 311 310 309 308 307
48 42 24 13 4 352 342 334 330 332 330 310 303 325 349 325 307 306 308 310 314 318 318 314 311 311 311 310 311 315 315 311 310 311 312 313 316 319 322 320 316 314 316 317 318 317 317 318 319 320 320 321 324 325 327 328 327 327 325 324 322 321 320 319 319 318 315 313 311 309 308 308 308 308 308 309 311 311 312 312 312 311 311 311 310
43 37 25 17 10 359 348 341 337 336 328 313 312 328 331 319 313 314 317 318 318 318 316 313 312 316 316 312 310 313 316 316 315 313 310 308 308 309 310 310 308 310 314 315 313 311 311 311 313 314 316 319 322 322 323 324 324 324 323 322 320 320 320 320 319 319 317 316 314 312 311 309 308 308 308 309 310 310 309 310 310 310 312 312 311
29 20 15 10 5 358 350 344 338 330 321 316 314 314 315 317 318 318 319 320 320 321 320 318 318 321 322 318 316 317 319 319 319 317 314 313 312 311 309 307 306 307 310 311 309 307 307 309 310 310 311 312 313 315 317 320 321 321 320 319 318 319 319 318 318 317 317 316 314 313 312 311 310 309 309 310 310 309 308 309 309 310 310 311 311
18 11 8 8 7 5 1 354 347 340 331 324 320 317 316 317 319 319 319 319 321 322 322 322 323 324 323 321 322 322 320 316 314 314 313 313 314 315 316 317 315 314 313 313 311 310 310 310 311 311 310 308 306 308 312 315 316 315 315 314 315 316 317 316 315 314 314 313 312 311 311 310 310 310 310 310 310 309 308 308 309 310 310 310 311
10 8 11 12 13 13 10 5 360 356 351 343 337 334 331 328 326 326 325 324 325 326 326 326 327 326 323 322 321 320 318 316 315 316 316 314 313 313 314 314 314 315 315 314 314 312 311 310 309 309 309 307 305 306 308 308 308 309 309 310 311 312 313 312 312 311 310 310 309 309 309 308 307 307 307 307 306 306 306 306 307 308 309 310 311
8 11 15 17 17 15 13 10 5 1 359 355 349 346 343 339 337 335 333 331 330 331 330 329 327 325 323 322 321 321 321 321 320 319 316 312 310 309 308 307 310 313 313 312 311 310 309 308 307 305 305 305 304 304 304 305 305 305 306 308 309 309 308 307 306 306 306 305 305 306 306 305 305 305 304 302 302 301 302 303 305 307 310 313 314
13 15 16 18 17 14 10 8 4 0 359 356 353 350 347 343 339 337 334 331 329 328 326 326 326 324 323 322 322 322 323 320 316 314 311 307 303 302 301 303 306 308 308 307 307 306 306 306 306 305 304 303 301 300 300 302 304 305 307 308 308 307 306 305 304 303 302 300 299 300 300 300 301 302 302 301 301 301 302 304 306 308 311 313 314
16 17 16 14 12 9 6 3 0 358 356 355 352 350 347 343 340 336 333 332 331 329 327 326 326 325 324 324 323 323 322 319 317 316 314 308 304 301 301 303 305 305 304 304 304 304 304 304 305 305 304 302 300 298 298 300 303 306 307 308 308 306 305 305 304 304 303 300 298 298 298 298 300 300 301 301 302 303 304 306 308 310 311 312 314
16 17 16 12 8 5 2 359 357 355 355 353 351 349 347 344 341 338 336 335 333 331 329 327 326 324 322 321 320 320 320 320 319 316 311 306 302 301 302 305 306 306 306 306 305 304 305 305 304 303 302 301 300 299 300 302 305 307 307 307 306 306 305 304 304 304 304 303 303 304 304 304 303 303 302 302 303 303 305 307 308 310 311 312 314
6 8 9 6 3 1 358 356 354 353 352 350 349 348 347 345 343 341 339 336 334 331 329 327 324 320 318 318 319 320 321 318 314 311 308 304 301 301 303 306 308 310 311 311 310 310 309 307 304 302 300 300 301 302 303 305 307 307 306 306 306 305 305 306 306 306 307 307 309 310 310 309 307 306 305 303 303 303 305 307 308 309 310 311 311